PITTSFIELD MILLS DAM SUNCOOK RIVER PITTSFIELD, NH: From 09/05/2020 05:00 to 09/20/2020 04:00

Date PRECIPITATION INCREMENT [IN] WATER TEMPERATURE [F] AIR TEMPERATURE [F] POOL ELEVATION [FT] RESERVOIR RELEASE [CFS]
09/19/2020 10:00 -- -- -- -- 0.0
09/19/2020 09:00 0.00 64.0 35.0 474.39 0.0
09/19/2020 08:00 0.00 64.0 31.0 474.39 0.0
09/19/2020 07:00 0.00 64.4 32.0 474.39 0.0
09/19/2020 06:00 0.00 64.6 34.0 474.39 0.0
09/19/2020 05:00 0.00 64.6 36.0 474.39 0.0
09/19/2020 04:00 0.00 64.8 38.0 474.39 0.0
09/19/2020 03:00 0.00 64.9 40.0 474.39 0.0
09/19/2020 02:00 0.00 65.1 47.0 474.40 0.0
09/19/2020 01:00 0.00 65.3 48.0 474.40 0.0
09/19/2020 00:00 0.00 65.3 50.0 474.40 0.0
09/18/2020 23:00 0.00 65.7 51.0 474.40 0.0
09/18/2020 22:00 0.00 65.8 53.0 474.40 0.0
09/18/2020 21:00 0.00 65.7 56.0 474.40 0.0
09/18/2020 20:00 0.00 65.7 58.0 474.40 0.0
09/18/2020 19:00 0.00 65.8 63.0 474.41 0.0
09/18/2020 18:00 0.00 65.8 65.0 474.40 0.0
09/18/2020 17:00 0.00 65.7 65.0 474.40 0.0
09/18/2020 16:00 0.00 65.8 61.0 474.40 0.0
09/18/2020 15:00 0.00 65.8 60.0 474.40 0.0
09/18/2020 14:00 0.00 65.8 57.0 474.40 0.0
09/18/2020 13:00 0.00 65.8 55.0 474.40 0.0
09/18/2020 12:00 0.00 65.8 54.0 474.40 0.0
09/18/2020 11:00 0.00 65.8 54.0 474.40 0.0
09/18/2020 10:00 0.00 66.0 52.0 474.40 0.0
09/18/2020 09:00 0.00 66.0 52.0 474.40 0.0
09/18/2020 08:00 0.00 65.8 54.0 474.40 0.0
09/18/2020 07:00 0.00 65.8 54.0 474.40 0.0
09/18/2020 06:00 0.00 65.7 55.0 474.40 0.0
09/18/2020 05:00 0.00 65.7 55.0 474.40 0.0
09/18/2020 04:00 0.00 65.7 56.0 474.40 0.0
09/18/2020 03:00 0.00 65.5 57.0 474.40 0.0
09/18/2020 02:00 0.00 65.5 57.0 474.40 0.0
09/18/2020 01:00 0.00 65.5 58.0 474.40 0.0
09/18/2020 00:00 0.00 65.5 60.0 474.40 0.0
09/17/2020 23:00 0.00 65.5 62.0 474.40 0.0
09/17/2020 22:00 0.00 65.5 62.0 474.40 0.0
09/17/2020 21:00 0.00 65.5 62.0 474.40 0.0
09/17/2020 20:00 0.00 65.5 63.0 474.40 0.0
09/17/2020 19:00 0.00 65.5 65.0 474.39 0.0
09/17/2020 18:00 0.00 65.5 68.0 474.41 0.0
09/17/2020 17:00 0.00 65.5 71.0 474.40 0.0
09/17/2020 16:00 0.00 65.3 72.0 474.40 0.0
09/17/2020 15:00 0.00 65.3 72.0 474.40 0.0
09/17/2020 14:00 0.00 65.1 69.0 474.40 0.0
09/17/2020 13:00 0.00 65.1 68.0 474.40 0.0
09/17/2020 12:00 0.00 65.1 63.0 474.40 0.0
09/17/2020 11:00 0.00 65.1 60.0 474.40 0.0
09/17/2020 10:00 0.00 65.1 56.0 474.40 0.0
09/17/2020 09:00 0.00 65.1 53.0 474.40 0.0
09/17/2020 08:00 0.00 65.3 52.0 474.40 0.0
09/17/2020 07:00 0.00 65.3 51.0 474.40 0.0
09/17/2020 06:00 0.00 65.3 53.0 474.40 0.0
09/17/2020 05:00 0.00 65.5 55.0 474.40 0.0
09/17/2020 04:00 0.00 65.5 56.0 474.40 0.0
09/17/2020 03:00 0.00 65.7 57.0 474.40 0.0
09/17/2020 02:00 0.00 65.7 58.0 474.40 0.0
09/17/2020 01:00 0.00 65.7 59.0 474.40 0.0
09/17/2020 00:00 0.00 65.7 60.0 474.40 0.0
09/16/2020 23:00 0.00 65.5 63.0 474.40 0.0
09/16/2020 22:00 0.00 65.8 64.0 474.40 0.0
09/16/2020 21:00 0.00 65.8 66.0 474.40 0.0
09/16/2020 20:00 0.00 65.8 68.0 474.40 0.0
09/16/2020 19:00 0.00 65.7 71.0 474.40 0.0
09/16/2020 18:00 0.00 65.7 73.0 474.38 0.0
09/16/2020 17:00 0.00 65.7 74.0 474.39 0.0
09/16/2020 16:00 0.00 65.7 74.0 474.39 0.0
09/16/2020 15:00 0.00 65.7 73.0 474.41 0.0
09/16/2020 14:00 0.00 65.5 70.0 474.40 0.0
09/16/2020 13:00 0.00 65.5 67.0 474.40 0.0
09/16/2020 12:00 0.00 65.5 60.0 474.40 0.0
09/16/2020 11:00 0.00 65.5 56.0 474.40 0.0
09/16/2020 10:00 0.00 65.7 49.0 474.40 0.0
09/16/2020 09:00 0.00 65.7 41.0 474.40 0.0
09/16/2020 08:00 0.00 65.8 38.0 474.40 0.0
09/16/2020 07:00 0.00 66.0 39.0 474.40 0.0
09/16/2020 06:00 0.00 66.0 40.0 474.40 0.0
09/16/2020 05:00 0.00 66.2 40.0 474.40 0.0
09/16/2020 04:00 0.00 66.4 41.0 474.40 0.0
09/16/2020 03:00 0.00 66.4 42.0 474.40 0.0
09/16/2020 02:00 0.00 66.6 43.0 474.40 0.0
09/16/2020 01:00 0.00 66.6 44.0 474.40 0.0
09/16/2020 00:00 0.00 66.7 45.0 474.40 0.0
09/15/2020 23:00 0.00 66.9 47.0 474.40 0.0
09/15/2020 22:00 0.00 66.9 49.0 474.40 0.0
09/15/2020 21:00 0.00 66.9 52.0 474.40 0.0
09/15/2020 20:00 0.00 66.9 58.0 474.40 0.0
09/15/2020 19:00 0.00 66.9 64.0 474.40 0.0
09/15/2020 18:00 0.00 66.7 64.0 474.40 0.0
09/15/2020 17:00 0.00 66.7 65.0 474.40 0.0
09/15/2020 16:00 0.00 66.7 63.0 474.40 0.0
09/15/2020 15:00 0.00 66.7 62.0 474.40 0.0
09/15/2020 14:00 0.00 67.1 59.0 474.40 0.0
09/15/2020 13:00 0.00 67.1 58.0 474.40 0.0
09/15/2020 12:00 0.00 67.1 56.0 474.40 0.0
09/15/2020 11:00 0.00 67.1 52.0 474.40 0.0
09/15/2020 10:00 0.00 67.3 44.0 474.40 0.0
09/15/2020 09:00 0.00 67.3 39.0 474.40 0.0
09/15/2020 08:00 0.00 67.5 37.0 474.40 0.0
09/15/2020 07:00 0.00 67.6 38.0 474.40 0.0
09/15/2020 06:00 0.00 67.8 38.0 474.40 0.0
09/15/2020 05:00 0.00 68.0 40.0 474.40 0.0
09/15/2020 04:00 0.00 68.2 41.0 474.41 0.0
09/15/2020 03:00 0.00 68.4 42.0 474.41 0.0
09/15/2020 02:00 0.00 68.5 45.0 474.41 0.0
09/15/2020 01:00 0.00 68.7 47.0 474.41 0.0
09/15/2020 00:00 0.00 68.5 50.0 474.41 0.0
09/14/2020 23:00 0.00 68.5 52.0 474.41 0.0
09/14/2020 22:00 0.00 69.1 54.0 474.41 0.0
09/14/2020 21:00 0.00 68.9 56.0 474.41 0.0
09/14/2020 20:00 0.00 68.7 59.0 474.40 0.0
09/14/2020 19:00 0.00 68.9 62.0 474.41 0.0
09/14/2020 18:00 0.00 68.7 65.0 474.40 0.0
09/14/2020 17:00 0.00 68.7 68.0 474.41 0.0
09/14/2020 16:00 0.00 68.5 69.0 474.42 0.0
09/14/2020 15:00 0.00 69.1 68.0 474.43 0.0
09/14/2020 14:00 0.00 69.3 68.0 474.41 0.0
09/14/2020 13:00 0.00 69.1 67.0 474.38 0.0
09/14/2020 12:00 0.00 68.7 66.0 474.41 0.0
09/14/2020 11:00 0.00 68.5 66.0 474.43 0.0
09/14/2020 10:00 0.00 68.5 65.0 474.42 0.0
09/14/2020 09:00 0.00 68.5 60.0 474.42 0.0
09/14/2020 08:00 0.00 68.7 57.0 474.42 0.0
09/14/2020 07:00 0.00 68.5 59.0 474.42 0.0
09/14/2020 06:00 0.00 68.5 60.0 474.42 0.0
09/14/2020 05:00 0.00 68.4 62.0 474.42 0.0
09/14/2020 04:00 0.00 68.4 63.0 474.42 0.0
09/14/2020 03:00 0.00 68.4 64.0 474.42 0.0
09/14/2020 02:00 0.00 68.5 65.0 474.42 0.0
09/14/2020 01:00 0.00 68.4 66.0 474.42 0.0
09/14/2020 00:00 0.00 68.4 68.0 474.41 --
09/13/2020 23:00 0.00 68.5 69.0 474.42 0.0
09/13/2020 22:00 0.00 68.5 69.0 474.41 0.0
09/13/2020 21:00 0.00 68.4 70.0 474.42 0.0
09/13/2020 20:00 0.00 68.7 71.0 474.42 0.0
09/13/2020 19:00 0.00 68.5 71.0 474.42 0.0
09/13/2020 18:00 0.00 68.4 72.0 474.41 0.0
09/13/2020 17:00 0.00 68.4 72.0 474.42 0.0
09/13/2020 16:00 0.00 68.5 71.0 474.43 0.0
09/13/2020 15:00 0.00 68.7 70.0 474.43 0.0
09/13/2020 14:00 0.00 68.5 69.0 474.42 0.0
09/13/2020 13:00 0.00 68.9 67.0 474.43 0.0
09/13/2020 12:00 0.00 69.1 64.0 474.42 0.0
09/13/2020 11:00 0.00 69.3 59.0 474.42 0.0
09/13/2020 10:00 0.00 69.3 53.0 474.42 0.0
09/13/2020 09:00 0.00 69.3 48.0 474.42 0.0
09/13/2020 08:00 0.00 69.4 46.0 474.42 0.0
09/13/2020 07:00 0.00 69.6 45.0 474.42 0.0
09/13/2020 06:00 0.00 69.4 44.0 474.42 0.0
09/13/2020 05:00 0.00 69.1 44.0 474.42 0.0
09/13/2020 04:00 0.00 69.1 46.0 474.42 0.0
09/13/2020 03:00 0.00 69.3 47.0 474.42 0.0
09/13/2020 02:00 0.00 69.3 48.0 474.42 0.0
09/13/2020 01:00 0.00 69.4 51.0 474.42 0.0
09/13/2020 00:00 0.00 69.6 54.0 474.42 0.0
09/12/2020 23:00 0.00 70.0 54.0 474.42 0.0
09/12/2020 22:00 0.00 69.8 57.0 474.42 0.0
09/12/2020 21:00 0.00 69.8 59.0 474.41 0.0
09/12/2020 20:00 0.00 69.8 63.0 474.42 0.0
09/12/2020 19:00 0.00 69.8 65.0 474.42 0.0
09/12/2020 18:00 0.00 70.0 68.0 474.42 0.0
09/12/2020 17:00 0.00 70.0 70.0 474.42 0.0
09/12/2020 16:00 0.00 69.8 69.0 474.42 0.0
09/12/2020 15:00 0.00 69.8 70.0 474.42 0.0
09/12/2020 14:00 0.00 69.6 66.0 474.42 0.0
09/12/2020 13:00 0.00 68.7 66.0 474.42 0.0
09/12/2020 12:00 0.00 70.0 62.0 474.42 0.0
09/12/2020 11:00 0.00 69.8 58.0 474.42 0.0
09/12/2020 10:00 0.00 69.8 51.0 474.42 0.0
09/12/2020 09:00 0.00 69.4 45.0 474.42 0.0
09/12/2020 08:00 0.00 69.3 42.0 474.42 0.0
09/12/2020 07:00 0.00 69.3 43.0 474.42 0.0
09/12/2020 06:00 0.00 69.3 44.0 474.42 0.0
09/12/2020 05:00 0.00 69.3 45.0 474.42 0.0
09/12/2020 04:00 0.00 69.3 47.0 474.42 0.0
09/12/2020 03:00 0.00 69.4 49.0 474.42 0.0
09/12/2020 02:00 0.00 69.6 50.0 474.42 0.0
09/12/2020 01:00 0.00 69.8 52.0 474.42 0.0
09/12/2020 00:00 0.00 69.6 54.0 474.42 0.0
09/11/2020 23:00 0.00 69.4 57.0 474.42 0.0
09/11/2020 22:00 0.00 69.6 61.0 474.42 0.0
09/11/2020 21:00 0.00 69.4 63.0 474.42 0.0
09/11/2020 20:00 0.00 69.4 67.0 474.42 0.0
09/11/2020 19:00 0.00 69.1 69.0 474.42 0.0
09/11/2020 18:00 0.00 69.1 71.0 474.42 0.0
09/11/2020 17:00 0.00 69.8 70.0 474.42 0.0
09/11/2020 16:00 0.00 69.4 69.0 474.42 0.0
09/11/2020 15:00 0.00 69.1 67.0 474.42 0.0
09/11/2020 14:00 0.00 69.3 65.0 474.42 0.0
09/11/2020 13:00 0.00 69.3 63.0 474.42 0.0
09/11/2020 12:00 0.00 69.3 62.0 474.42 0.0
09/11/2020 11:00 0.00 69.1 60.0 474.42 0.0
09/11/2020 10:00 0.00 69.3 60.0 474.42 0.0
09/11/2020 09:00 0.00 69.1 61.0 474.43 0.0
09/11/2020 08:00 0.00 69.3 61.0 474.43 0.0
09/11/2020 07:00 0.00 69.3 62.0 474.43 0.0
09/11/2020 06:00 0.00 69.3 62.0 474.43 0.0
09/11/2020 05:00 0.00 69.3 63.0 474.42 0.0
09/11/2020 04:00 0.00 69.4 65.0 474.43 0.0
09/11/2020 03:00 0.00 69.3 67.0 474.43 0.0
09/11/2020 02:00 0.00 69.3 68.0 474.43 0.0
09/11/2020 01:00 0.00 69.6 70.0 474.43 0.0
09/11/2020 00:00 0.00 69.4 71.0 474.43 0.0
09/10/2020 23:00 0.00 69.4 71.0 474.43 0.0
09/10/2020 22:00 0.00 69.6 72.0 474.43 0.0
09/10/2020 21:00 0.00 69.3 73.0 474.43 0.0
09/10/2020 20:00 0.00 69.3 76.0 474.43 0.0
09/10/2020 19:00 0.00 69.1 79.0 474.43 0.0
09/10/2020 18:00 0.00 69.1 77.0 474.43 0.0
09/10/2020 17:00 0.00 69.1 78.0 474.43 0.0
09/10/2020 16:00 0.00 68.7 77.0 474.43 0.0
09/10/2020 15:00 0.04 68.7 73.0 474.43 0.0
09/10/2020 14:00 0.05 68.7 71.0 474.42 0.0
09/10/2020 13:00 0.00 69.1 71.0 474.42 0.0
09/10/2020 12:00 0.00 68.9 72.0 474.42 0.0
09/10/2020 11:00 0.00 69.1 71.0 474.42 0.0
09/10/2020 10:00 0.00 69.3 68.0 474.42 0.0
09/10/2020 09:00 0.00 69.3 61.0 474.42 0.0
09/10/2020 08:00 0.00 69.4 60.0 474.42 0.0
09/10/2020 07:00 0.00 69.3 61.0 474.42 0.0
09/10/2020 06:00 0.00 69.3 61.0 474.42 0.0
09/10/2020 05:00 0.00 69.3 61.0 474.42 0.0
09/10/2020 04:00 0.00 69.1 61.0 474.42 0.0
09/10/2020 03:00 0.00 68.9 61.0 474.42 0.0
09/10/2020 02:00 0.00 69.1 62.0 474.42 0.0
09/10/2020 01:00 0.00 69.3 62.0 474.42 0.0
09/10/2020 00:00 0.00 69.1 64.0 474.42 0.0
09/09/2020 23:00 0.00 69.1 66.0 474.42 0.0
09/09/2020 22:00 0.00 69.4 69.0 474.42 0.0
09/09/2020 21:00 0.00 69.1 73.0 474.42 0.0
09/09/2020 20:00 0.00 69.3 75.0 474.42 0.0
09/09/2020 19:00 0.00 69.1 80.0 474.42 0.0
09/09/2020 18:00 0.00 68.7 83.0 474.42 0.0
09/09/2020 17:00 0.00 68.9 83.0 474.42 0.0
09/09/2020 16:00 0.00 68.7 84.0 474.42 0.0
09/09/2020 15:00 0.00 68.7 84.0 474.41 0.0
09/09/2020 14:00 0.00 68.9 82.0 474.42 0.0
09/09/2020 13:00 0.00 69.1 81.0 474.42 0.0
09/09/2020 12:00 0.00 68.9 77.0 474.42 0.0
09/09/2020 11:00 0.00 68.9 72.0 474.42 0.0
09/09/2020 10:00 0.00 69.1 67.0 474.42 0.0
09/09/2020 09:00 0.00 69.1 62.0 474.42 0.0
09/09/2020 08:00 0.00 68.9 59.0 474.42 0.0
09/09/2020 07:00 0.00 69.1 59.0 474.42 0.0
09/09/2020 06:00 0.00 68.9 60.0 474.42 0.0
09/09/2020 05:00 0.00 68.9 61.0 474.42 0.0
09/09/2020 04:00 0.00 68.9 62.0 474.42 0.0
09/09/2020 03:00 0.00 68.5 63.0 474.42 0.0
09/09/2020 02:00 0.00 68.9 65.0 474.42 0.0
09/09/2020 01:00 0.00 69.3 65.0 474.42 0.0
09/09/2020 00:00 0.00 69.1 67.0 474.42 0.0
09/08/2020 23:00 0.00 69.3 70.0 474.42 0.0
09/08/2020 22:00 0.00 69.3 73.0 474.42 0.0
09/08/2020 21:00 0.00 69.1 76.0 474.42 0.0
09/08/2020 20:00 0.00 69.1 82.0 474.42 0.0
09/08/2020 19:00 0.00 68.9 85.0 474.42 0.0
09/08/2020 18:00 0.00 69.1 85.0 474.42 0.0
09/08/2020 17:00 0.00 69.1 83.0 474.42 0.0
09/08/2020 16:00 0.00 68.9 83.0 474.42 0.0
09/08/2020 15:00 0.00 68.5 82.0 474.42 0.0
09/08/2020 14:00 0.00 69.1 78.0 474.42 0.0
09/08/2020 13:00 0.00 68.7 77.0 474.42 0.0
09/08/2020 12:00 0.00 68.9 74.0 474.42 0.0
09/08/2020 11:00 0.00 68.9 70.0 474.42 0.0
09/08/2020 10:00 0.00 68.9 63.0 474.42 0.0
09/08/2020 09:00 0.00 68.9 61.0 474.42 0.0
09/08/2020 08:00 0.00 68.7 57.0 474.42 0.0
09/08/2020 07:00 0.00 68.7 58.0 474.42 0.0
09/08/2020 06:00 0.00 68.7 59.0 474.42 0.0
09/08/2020 05:00 0.00 68.7 61.0 474.42 0.0
09/08/2020 04:00 0.00 68.5 62.0 474.42 0.0
09/08/2020 03:00 0.00 68.5 63.0 474.42 0.0
09/08/2020 02:00 0.00 68.7 64.0 474.42 0.0
09/08/2020 01:00 0.00 68.9 65.0 474.42 0.0
09/08/2020 00:00 0.00 68.7 67.0 474.42 0.0
09/07/2020 23:00 0.00 68.9 68.0 474.42 0.0
09/07/2020 22:00 0.00 68.9 70.0 474.42 0.0
09/07/2020 21:00 0.00 68.7 71.0 474.42 0.0
09/07/2020 20:00 0.00 68.7 74.0 474.42 0.0
09/07/2020 19:00 0.00 68.4 75.0 474.42 0.0
09/07/2020 18:00 0.00 68.5 78.0 474.41 0.0
09/07/2020 17:00 0.00 68.5 80.0 474.41 0.0
09/07/2020 16:00 0.00 68.4 80.0 474.43 0.0
09/07/2020 15:00 0.00 68.4 79.0 474.42 0.0
09/07/2020 14:00 0.00 68.4 79.0 474.43 0.0
09/07/2020 13:00 0.00 68.2 77.0 474.42 0.0
09/07/2020 12:00 0.00 67.8 74.0 474.42 0.0
09/07/2020 11:00 0.00 68.0 71.0 474.42 0.0
09/07/2020 10:00 0.00 68.5 65.0 474.42 0.0
09/07/2020 09:00 0.00 68.7 62.0 474.42 0.0
09/07/2020 08:00 0.00 68.7 57.0 474.42 0.0
09/07/2020 07:00 0.00 68.7 57.0 474.42 0.0
09/07/2020 06:00 0.00 68.7 56.0 474.42 0.0
09/07/2020 05:00 0.00 68.7 56.0 474.42 0.0
09/07/2020 04:00 0.00 68.7 55.0 474.42 0.0
09/07/2020 03:00 0.00 68.5 55.0 474.42 0.0
09/07/2020 02:00 0.00 68.5 55.0 474.42 0.0
09/07/2020 01:00 0.00 68.5 56.0 474.42 0.0
09/07/2020 00:00 0.00 68.7 57.0 474.42 0.0
09/06/2020 23:00 0.00 68.7 58.0 474.42 0.0
09/06/2020 22:00 0.00 68.5 60.0 474.42 0.0
09/06/2020 21:00 0.00 68.5 63.0 474.42 0.0
09/06/2020 20:00 0.00 68.2 72.0 474.42 0.0
09/06/2020 19:00 0.00 68.4 76.0 474.42 0.0
09/06/2020 18:00 0.00 68.7 77.0 474.42 0.0
09/06/2020 17:00 0.00 67.8 73.0 474.42 0.0
09/06/2020 16:00 0.00 68.5 73.0 474.43 0.0
09/06/2020 15:00 0.00 68.4 73.0 474.43 0.0
09/06/2020 14:00 0.00 68.5 70.0 474.42 0.0
09/06/2020 13:00 0.00 68.5 71.0 474.43 0.0
09/06/2020 12:00 0.00 68.5 68.0 474.43 0.0
09/06/2020 11:00 0.00 68.5 66.0 474.43 0.0
09/06/2020 10:00 0.00 68.5 61.0 474.43 0.0
09/06/2020 09:00 0.00 68.5 56.0 474.43 0.0
09/06/2020 08:00 0.00 68.5 55.0 474.43 0.0
09/06/2020 07:00 0.00 68.7 54.0 474.43 0.0
09/06/2020 06:00 0.00 68.9 54.0 474.43 0.0
09/06/2020 05:00 0.00 68.9 55.0 474.43 0.0
09/06/2020 04:00 0.00 69.1 58.0 474.43 0.0
09/06/2020 03:00 0.00 69.1 59.0 474.43 0.0
09/06/2020 02:00 0.00 68.9 59.0 474.43 0.0
09/06/2020 01:00 0.00 68.9 60.0 474.43 0.0
09/06/2020 00:00 0.00 68.7 60.0 474.43 0.0
09/05/2020 23:00 0.00 68.7 61.0 474.43 0.0
09/05/2020 22:00 0.00 68.4 62.0 474.43 0.0
09/05/2020 21:00 -- -- -- -- --
09/05/2020 20:00 -- -- -- -- --
09/05/2020 19:00 -- -- -- -- --
09/05/2020 18:00 -- -- -- -- --
09/05/2020 17:00 -- -- -- -- --
09/05/2020 16:00 -- -- -- -- --
09/05/2020 15:00 -- -- -- -- --
09/05/2020 14:00 -- -- -- -- --
09/05/2020 13:00 -- -- -- -- --
09/05/2020 12:00 -- -- -- -- --
09/05/2020 11:00 -- -- -- -- --
09/05/2020 10:00 -- -- -- -- --
09/05/2020 09:00 -- -- -- -- --
09/05/2020 08:00 -- -- -- -- --
09/05/2020 07:00 -- -- -- -- --
09/05/2020 06:00 -- -- -- -- --
09/05/2020 05:00 -- -- -- -- --